マクノート彗星

220P/McNaught (2004)

English version
Home page
Updated on May 8, 2009

---------------------------------------------------------------------

・ プロフィール

符号 220P/2004 K2
発見日 2004年5月20日
発見光度 17.7等
発見者 R. H. McNaught (Siding Spring)

・ 軌道要素

                    Epoch = 2004 June  4.0 TT
     T = 2004 June 16.81457 TT        Peri. = 180.77298
     e = 0.5012692                    Node  = 150.12399 2000.0
     q = 1.5544515 AU                 Incl. =   8.12289
       a =  3.1168146 AU   n = 0.17911734   P =   5.503 years

・ 星図

・ 光度変化

        m1 = 14.0 + 5 logΔ + 15.0 log r

---------------------------------------------------------------------

軌道要素は、CBET 1790に掲載されたものです。
星図は StellaNavigator Ver.2.0 for Windows (アストロアーツ編著 / アスキー出版局刊) で作成したものです。
光度グラフはComet for Windowsで作成したものです。

---------------------------------------------------------------------

Copyright(C) Seiichi Yoshida (comet@aerith.net). All rights reserved.